GW5360 Weather Reports


time (UTC)temp
C
wind
direction
speed
KPH
gust
KPH
rain 1hr
cm
rain 24hr
cm
rain mn
cm
humidity
%
barometer
mb
20260507124544 18 194 1.6 4.8 0.00 0.00 0.00 79 1017.7
20260507123030 19 194 1.6 4.8 0.00 0.00 0.00 79 1017.8
20260507121522 19 194 1.6 4.8 0.00 0.00 0.00 80 1017.9
20260507120005 19 194 3.2 6.4 0.00 0.00 0.00 79 1017.9
20260507114510 20 194 1.6 6.4 0.00 0.00 0.00 78 1018.0
20260507113019 20 194 1.6 4.8 0.00 0.00 0.00 83 1018.1
20260507111521 20 194 1.6 3.2 0.00 0.00 0.00 83 1018.3
20260507110030 20 194 1.6 4.8 0.00 0.00 0.00 81 1018.5
20260507104508 20 194 1.6 4.8 0.00 0.00 0.00 82 1018.6
20260507103012 20 194 1.6 3.2 0.00 0.00 0.00 82 1018.7
20260507101517 20 194 3.2 4.8 0.00 0.00 0.00 82 1018.9
20260507100024 20 194 1.6 4.8 0.00 0.00 0.00 81 1019.0
20260507094507 20 194 1.6 4.8 0.00 0.00 0.00 83 1019.0
20260507093023 20 194 3.2 6.4 0.00 0.03 0.00 81 1019.2
20260507091528 21 194 3.2 6.4 0.00 0.03 0.00 81 1019.3
20260507090022 21 194 1.6 4.8 0.00 0.03 0.00 83 1019.3
20260507084531 21 194 1.6 3.2 0.00 0.03 0.00 84 1019.3
20260507083009 21 194 1.6 4.8 0.00 0.03 0.00 84 1019.2
20260507081514 21 194 1.6 4.8 0.00 0.03 0.00 84 1019.2
20260507080020 21 194 0.0 3.2 0.00 0.03 0.00 87 1019.0
20260507074525 22 194 0.0 3.2 0.00 0.03 0.00 88 1019.2
20260507073028 22 194 0.0 1.6 0.00 0.03 0.00 88 1019.1
20260507071512 22 194 0.0 3.2 0.00 0.03 0.00 87 1018.9
20260507070018 22 194 0.0 3.2 0.00 0.03 0.00 87 1018.7
20260507064524 22 194 0.0 1.6 0.00 0.03 0.00 87 1018.6
20260507063036 22 194 0.0 0.0 0.00 0.03 0.00 86 1018.4
20260507061532 22 194 0.0 3.2 0.00 0.03 0.00 86 1018.3
20260507060032 22 194 0.0 0.0 0.00 0.03 0.00 86 1018.1
20260507054520 22 194 0.0 3.2 0.00 0.03 0.00 85 1017.9
20260507053024 22 194 0.0 3.2 0.00 0.03 0.00 84 1017.8
20260507051526 22 194 0.0 0.0 0.00 0.03 0.00 83 1017.8
20260507050034 22 194 0.0 3.2 0.00 0.03 0.00 82 1017.7
20260507044519 23 194 0.0 3.2 0.00 0.03 0.00 83 1017.3
20260507043022 23 194 0.0 3.2 0.00 0.03 0.00 82 1017.1
20260507041524 23 194 0.0 3.2 0.00 0.03 0.00 81 1016.7
20260507040028 23 194 0.0 3.2 0.00 0.03 0.00 80 1016.5
20260507034527 23 194 0.0 3.2 0.00 0.03 0.00 80 1016.4
20260507033020 23 194 1.6 3.2 0.00 0.03 0.00 79 1016.2
20260507031524 24 194 0.0 3.2 0.00 0.03 0.00 79 1016.2
20260507030024 24 194 0.0 3.2 0.00 0.03 0.00 77 1016.1
20260507024528 25 194 0.0 3.2 0.00 0.03 0.00 78 1016.1
20260507023022 25 194 0.0 3.2 0.00 0.03 0.00 75 1016.0
20260507021520 25 194 1.6 4.8 0.00 0.03 0.00 74 1016.0
20260507020033 25 194 1.6 3.2 0.00 0.03 0.00 72 1016.1
20260507014526 25 194 0.0 3.2 0.00 0.03 0.00 80 1016.1
20260507013045 24 194 1.6 4.8 0.00 0.03 0.00 81 1016.2
20260507011522 25 194 1.6 4.8 0.00 0.03 0.00 80 1016.2
20260507010005 25 194 1.6 6.4 0.00 0.03 0.00 79 1016.1
20260507004509 25 194 1.6 3.2 0.00 0.03 0.00 80 1016.2
20260507003014 25 194 1.6 6.4 0.00 0.03 0.00 79 1016.5
20260507001525 25 194 1.6 4.8 0.00 0.03 0.00 79 1016.6
20260507000003 25 194 3.2 6.4 0.00 0.03 0.00 80 1016.7
20260506234513 25 194 1.6 4.8 0.00 0.03 0.00 80 1016.8
20260506233015 25 194 1.6 6.4 0.00 0.03 0.00 81 1017.1
20260506231518 25 194 1.6 4.8 0.00 0.03 0.00 79 1017.2
20260506230028 25 194 1.6 6.4 0.00 0.03 0.00 79 1017.4
20260506224508 25 194 1.6 6.4 0.00 0.03 0.00 79 1017.7
20260506223010 25 194 1.6 6.4 0.00 0.03 0.00 79 1017.7
20260506221514 25 194 1.6 4.8 0.00 0.03 0.00 80 1017.7
20260506220028 25 194 1.6 4.8 0.00 0.03 0.00 78 1017.7
20260506214525 25 194 1.6 8.0 0.00 0.03 0.00 80 1017.8
20260506213008 25 194 1.6 4.8 0.00 0.03 0.00 78 1017.9
20260506211522 25 194 1.6 6.4 0.00 0.03 0.00 80 1018.1
20260506210028 25 194 1.6 8.0 0.00 0.03 0.00 79 1018.3
20260506204522 25 194 1.6 4.8 0.00 0.03 0.00 78 1018.1
20260506203026 25 194 0.0 4.8 0.00 0.03 0.00 79 1018.2
20260506201512 25 194 1.6 8.0 0.00 0.03 0.00 77 1018.2
20260506200033 25 194 1.6 4.8 0.00 0.03 0.00 77 1018.3
20260506194522 25 194 0.0 3.2 0.00 0.03 0.00 74 1017.9
20260506193028 25 194 0.0 3.2 0.00 0.03 0.00 73 1018.0
20260506191511 24 194 0.0 3.2 0.00 0.03 0.00 75 1018.0
20260506190014 24 194 0.0 3.2 0.00 0.03 0.00 77 1018.1
20260506184519 23 194 0.0 3.2 0.00 0.03 0.00 73 1018.1
20260506183025 23 194 0.0 3.2 0.00 0.03 0.00 83 1018.1
20260506181526 22 194 0.0 3.2 0.00 0.03 0.00 86 1018.2
20260506180017 21 194 0.0 3.2 0.00 0.03 0.00 85 1018.2
20260506174518 20 194 1.6 3.2 0.00 0.03 0.00 87 1018.2
20260506173025 20 194 1.6 4.8 0.00 0.03 0.00 85 1017.8
20260506171525 19 194 1.6 3.2 0.00 0.03 0.00 83 1017.7
20260506170027 18 194 3.2 4.8 0.00 0.03 0.00 84 1017.2
20260506164517 18 194 3.2 4.8 0.00 0.03 0.00 85 1017.1
20260506163025 18 194 1.6 6.4 0.00 0.03 0.00 85 1016.8
20260506161527 18 194 3.2 4.8 0.00 0.03 0.00 85 1016.9
20260506160016 17 194 3.2 4.8 0.00 0.03 0.00 85 1016.7
20260506154519 18 194 3.2 6.4 0.00 0.03 0.00 87 1016.5
20260506153022 18 194 3.2 6.4 0.00 0.03 0.00 87 1016.3
20260506151507 18 194 3.2 4.8 0.00 0.03 0.00 87 1016.2
20260506150010 18 194 3.2 4.8 0.00 0.03 0.00 87 1016.1
20260506144514 18 194 3.2 6.4 0.00 0.03 0.00 88 1016.3
20260506143026 18 194 3.2 6.4 0.00 0.03 0.00 88 1016.2
20260506141504 18 194 3.2 6.4 0.00 0.03 0.00 88 1016.3
20260506140006 18 194 3.2 4.8 0.00 0.03 0.00 87 1016.4
20260506134513 18 194 3.2 4.8 0.00 0.03 0.00 88 1016.4
20260506133020 18 194 3.2 4.8 0.00 0.03 0.00 89 1016.3
20260506131521 18 194 3.2 6.4 0.00 0.03 0.00 90 1016.5
20260506130010 19 194 1.6 4.8 0.00 0.03 0.00 90 1016.4